This demonstration page uses our WeatherBlox Daily Observations layout. Learn more.

38.89511, -77.03637

Hourly Observations for October 9, 2015

Temp ( °F °C ) Dew Point ( °F °C ) Humidity (%) Winds ( mph kmh ) Pressure ( in mb ) Visibility ( mi km ) Precip ( " mm )
12:52 am 00:52 Mostly Cloudy 64 17.8 61 16.1 90 90 S 7 11 30.07 1018 10 16.0934 0 0
1:52 am 01:52 Partly Cloudy 63 17.2 61 16.1 93 93 S 6 9 30.05 1018 10 16.0934 0 0
2:52 am 02:52 Mostly Cloudy 63 17.2 60 15.6 90 90 S 7 11 30.04 1017 10 16.0934 0 0
3:52 am 03:52 Partly Cloudy 63 17.2 60 15.6 90 90 S 7 11 30.02 1017 10 16.0934 0 0
4:52 am 04:52 Partly Cloudy 62 16.7 59 15 90 90 SW 3 6 30.01 1016 10 16.0934 0 0
5:52 am 05:52 Mostly Cloudy 63 17.2 60 15.6 90 90 SSW 8 13 30 1016 10 16.0934 0 0
6:52 am 06:52 Mostly Cloudy 63 17.2 60 15.6 90 90 Calm 30 1016 10 16.0934 0 0.0254
7:23 am 07:23 Mostly Cloudy with Light Rain 63 17 61 16 94 94 S 8 13 30 1016 5 8.0467 0.02 0.508
7:52 am 07:52 Mostly Cloudy 63 17.2 61 16.1 93 93 S 7 11 29.99 1016 9 14.48406 0.02 0.508
8:52 am 08:52 Partly Cloudy 65 18.3 62 16.7 90 90 S 7 11 29.99 1016 10 16.0934 0 0
9:52 am 09:52 Partly Cloudy 68 20 63 17.2 84 84 S 8 13 29.98 1015 10 16.0934 0 0
10:52 am 10:52 Partly Cloudy 71 21.7 64 17.8 79 79 S 10 17 29.96 1015 10 16.0934 0 0
11:52 am 11:52 Mostly Cloudy 73 22.8 63 17.2 71 71 S 7 11 29.95 1014 10 16.0934 0 0
12:52 pm 12:52 Mostly Cloudy 74 23.3 64 17.8 71 71 S 8 13 29.93 1014 10 16.0934 0 0
1:52 pm 13:52 Cloudy with Light Rain 75 23.9 66 18.9 74 74 SSW 13 20 29.89 1012 10 16.0934 0 0.0254
2:52 pm 14:52 Cloudy 79 26.1 64 17.8 60 60 SSW 16 26 29.87 1011 10 16.0934 0 0.0254
3:52 pm 15:52 Cloudy 79 26.1 65 18.3 62 62 S 10 17 29.84 1011 10 16.0934 0 0
4:52 pm 16:52 Cloudy 79 26.1 66 18.9 65 65 SSW 12 19 29.84 1010 10 16.0934 0 0
5:52 pm 17:52 Cloudy 77 25 65 18.3 66 66 SSW 12 19 29.83 1010 10 16.0934 0 0
6:36 pm 18:36 Cloudy 75 24 64 18 69 69 VRB 7 11 29.88 1012 10 16.0934 0 0
6:40 pm 18:40 Cloudy with Thunderstorms 75 24 64 18 69 69 NNW 25 41 29.88 1012 10 16.0934 0 0
6:45 pm 18:45 Cloudy with Thunderstorms 72 22 63 17 73 73 NW 20 31 29.88 1012 4 6.43736 0 0.0254
6:50 pm 18:50 Cloudy with Thunderstorms 68 20 64 18 88 88 NW 22 35 29.88 1012 1 1.60934 0 0
6:52 pm 18:52 Cloudy with Heavy Thunderstorms 68 20 64 17.8 87 87 WNW 18 30 29.88 1012 1 1.60934 0.04 1.016
6:55 pm 18:55 Cloudy with Heavy Thunderstorms 68 20 64 18 88 88 WNW 9 15 29.88 1012 2 3.21868 0.12 3.048
7:01 pm 19:01 Cloudy with Heavy Thunderstorms 66 19 64 18 94 94 NW 9 15 29.88 1012 3 4.82802 0.31 7.874
7:09 pm 19:09 Cloudy with Light Thunderstorms 66 19 64 18 94 94 N 8 13 29.88 1012 10 16.0934 0.34 8.636
7:12 pm 19:12 Cloudy with Thunderstorms 66 19 64 18 94 94 N 7 11 29.88 1012 10 16.0934 0 0
7:22 pm 19:22 Cloudy 66 19 64 18 94 94 N 5 7 29.88 1012 10 16.0934 0 0
7:31 pm 19:31 Cloudy 66 19 64 18 94 94 NE 5 7 29.91 1013 10 16.0934 0.34 8.636
7:52 pm 19:52 Cloudy 67 19.4 64 17.8 91 91 N 5 7 29.91 1013 10 16.0934 0.34 8.636
8:52 pm 20:52 Cloudy 66 18.9 65 18.3 96 96 Calm 29.92 1013 10 16.0934 0 0
9:52 pm 21:52 Cloudy 68 20 63 17.2 84 84 VRB 3 6 29.94 1014 10 16.0934 0 0
10:52 pm 22:52 Cloudy 68 20 62 16.7 81 81 NW 8 13 29.96 1014 10 16.0934 0 0
11:52 pm 23:52 Cloudy 67 19.4 61 16.1 81 81 NNW 8 13 29.98 1015 10 16.0934 0 0

Powered by AerisWeather